Regional Weather Roundup
Issued by NWS Newport/Morehead, NC

Current Version | Previous Version | Text Only | Print | Product List | Glossary Off
Versions: 1 2 3 4 5 6 7 8 9 10 11 12 13 14 15 16 17 18 19 20 21 22 23 24 25 26 27 28 29 30 31 32 33 34 35 36 37 38 39 40 41 42 43 44 45 46 47 48 49 50
000 ASUS42 KMHX 260125 RWRMHX WEATHER ROUNDUP FOR EASTERN NORTH CAROLINA NATIONAL WEATHER SERVICE NEWPORT/MOREHEAD CITY NC 900 PM EDT MON SEP 25 2017 NOTE: "FAIR" INDICATES FEW OR NO CLOUDS BELOW 12,000 FEET WITH NO SIGNIFICANT WEATHER AND/OR OBSTRUCTIONS TO VISIBILITY NCZ015>017-031-032-045>047-102-103-260200- NORTH COAST CITY SKY/WX TMP DP RH WIND PRES REMARKS EDENTON CLOUDY 73 69 87 N3G18 29.92F ELIZABETH CITY CLOUDY 72 71 97 N16 29.92S KITTY HAWK CLOUDY 70 70 100 NE10G23 29.88F MANTEO CLOUDY 71 70 98 NE15G22 29.89F $$ NCZ045>047-081-094-103-104-260200- CENTRAL COAST CITY SKY/WX TMP DP RH WIND PRES REMARKS FRISCO CLOUDY 76 75 97 NE14G25 29.83S $$ NCZ095-097-098-100-101-260200- SOUTHERN COAST CITY SKY/WX TMP DP RH WIND PRES REMARKS BEAUFORT CLOUDY 74 74 100 N18G25 29.83S CEDAR ISLAND NOT AVBL JACKSONVILLE CLOUDY 77 72 84 N12 29.86R PINEY ISLAND N/A N/A N/A N/A N22G29 29.84S WILMINGTON CLOUDY 77 71 82 N9 29.86R $$ NCZ011>013-027>030-043-044-078>080-089-090>093-098-260200- COASTAL PLAIN CITY SKY/WX TMP DP RH WIND PRES REMARKS AHOSKIE CLOUDY 71 67 88 N7 29.94S CLINTON MOCLDY 76 70 81 N7 29.90S ELIZABETHTOWN NOT AVBL GOLDSBORO PTCLDY 76 73 91 NE8 29.90R GREENVILLE CLOUDY 73 68 83 N9G16 29.94R HAVELOCK CLOUDY 75 72 90 N17 29.86S KENANSVILLE CLOUDY 77 70 78 N12 29.90R KINSTON CLOUDY 75 68 78 N9 29.91R NEW BERN CLOUDY 74 71 91 N13 29.89R RICHLANDS LGT RAIN 76 70 82 N8 29.88S ROCKY MOUNT PTCLDY 73 68 84 NE6 29.93R WASHINGTON LGT RAIN 72 69 91 NE8 29.91R WHITEVILLE CLOUDY 75 69 80 NE3 29.87F $$ AMZ130-135-150-152-154-156-158-170-250-252-270-ANZ085-086-088-633-658-670-260200- MARINE OBSERVATIONS STATION/POSITION TIME TEMP WIND PRES WAVE SWELL AIR SEA DIR/SP/G HT/PER HT/PER (UTC) (F) (DEG/KT/KT) (MB) (FT/S) (FT/S) CHESAPEAKE LIGHT NOT AVBL 64 E VA BEACH 0050 71 70 50/ 17/ 21 1013.1 16/15 15/15 DUCK 0100 72 76 40/ 24/ 27 1012.3 2 E DUCK 0100 76 N/A 9/12 5/12 OREGON INLET 0100 73 76 30/ 19/ 25 1011.1 13E OREGON INLT 0048 75 N/A 12/14 13/14 HATTERAS CG 0100 75 77 40/ 17/ 24 1009.9 DIAMOND BUOY 0050 76 78 30/ 25/ 31 1008.0 16/15 15/15 CAPE LOOKOUT 0100 75 10/ 22/ 27 1009.3 BEAUFORT LAB 0100 74 75 20/ 15/ 20 1009.6 30 SE NEW RVR IN 0108 77 20/ 23/ 31 1009.0 30 SE NEW RVR IN NOT AVBL 27 SE WRIGHTSVLE 0108 78 79 40/ 21/ 29 1009.3 5 SE WRIGHTSVLE 0108 78 78 20/ 16/ 27 1010.2 225 S CAPE HAT 0050 78 81 340/ 37/ 45 992.8 19/10 41 SE CHARLESTON 0110 78 81 350/ 17/ 19 1010.2 $$

USA.gov is the U.S. government's official web portal to all federal, state and local government web resources and services.